This is the latest recevied weather packets stored in our database for station/object N7WGJ. If no packets are shown the sender has not sent any weather packets the latest 10 day(s).
| Time | Temp. | Humidity | Pressure | Rain* | Wind** | Luminosity | Snow |
|---|---|---|---|---|---|---|---|
| 1788655893 | 20.56° C | 56% | 1016.6 hPa | 0 mm | - | - | - |
| 1788655296 | 20.56° C | 57% | 1016.6 hPa | 0 mm | - | - | - |
| 1788654701 | 20.56° C | 56% | 1016.6 hPa | 0 mm | - | - | - |
| 1788654098 | 21.11° C | 56% | 1016.5 hPa | 0 mm | - | - | - |
| 1788653501 | 21.11° C | 55% | 1016.6 hPa | 0 mm | - | - | - |
| 1788652897 | 21.11° C | 56% | 1016.6 hPa | 0 mm | - | - | - |
| 1788652288 | 21.11° C | 55% | 1016.6 hPa | 0 mm | - | - | - |
| 1788651686 | 21.67° C | 57% | 1016.7 hPa | 0 mm | - | - | - |
| 1788651088 | 21.11° C | 54% | 1016.7 hPa | 0 mm | - | - | - |
| 1788650491 | 20.56° C | 54% | 1016.6 hPa | 0 mm | - | - | - |
| 1788649892 | 20.56° C | 54% | 1016.7 hPa | 0 mm | - | - | - |
| 1788649296 | 21.11° C | 55% | 1016.7 hPa | 0 mm | - | - | - |
| 1788648683 | 21.11° C | 54% | 1016.8 hPa | 0 mm | - | - | - |
| 1788648086 | 21.11° C | 55% | 1016.9 hPa | 0 mm | - | - | - |
| 1788647490 | 21.11° C | 55% | 1016.9 hPa | 0 mm | - | - | - |
| 1788646895 | 21.11° C | 55% | 1017 hPa | 0 mm | - | - | - |
| 1788646293 | 21.11° C | 60% | 1017.2 hPa | 0 mm | - | - | - |
| 1788645711 | 20.56° C | 62% | 1017.3 hPa | 0 mm | - | - | - |
| 1788645083 | 20.56° C | 60% | 1017.4 hPa | 0 mm | - | - | - |
| 1788644502 | 20° C | 65% | 1017.5 hPa | 0 mm | - | - | - |
| 1788643898 | 19.44° C | 68% | 1017.7 hPa | 0 mm | - | - | - |
| 1788643294 | 18.89° C | 70% | 1017.8 hPa | 0 mm | - | - | - |
| 1788642695 | 18.89° C | 71% | 1017.8 hPa | 0 mm | - | - | - |
| 1788642112 | 18.33° C | 73% | 1017.9 hPa | 0 mm | - | - | - |
| 1788641502 | 18.33° C | 75% | 1018 hPa | 0 mm | - | - | - |
* Rain latest hour (hover to see other rain measurements)
** Current wind speed in m/s (hover to see current wind gust speed)